Find Starlink 32915

NORAD ID: 63152 Int'l Des: 2025-043 Owner: SPXS Country: US Constellation: starlink operational
LEOCIRCULAR

当前视图

正在加载3D地球...

About Starlink 32915

Starlink 32915 (NORAD 63152) is a starlink constellation satellite (v2 mini) launched Mar 3, 2025 by SPXS of US. It operates in LEO, CIRCULAR orbit with a mass of 730.00 kg.

即将过境

Passes for default location (London). Set your location on the main map for personalized predictions.

高度历史

Loading altitude history...

两行轨道根数

1 63152U 25043W 26262.56457801 .00007193 00000-0 27054-3 0 9996
2 63152 43.0036 8.1476 0001711 271.9527 88.1129 15.27595472 86936
Epoch: Sep 19, 2026 • Age: 26 hours

当前状态

高度 490.2 km
远地点 / 近地点 N/A
速度 7.62 km/s
星下点 -30.50°S, 83.17°E
发射日期 Mar 3, 2025
运行时间 1.5 years
类型 internet

技术详情

分类 Payload
质量 730.00 kg
干质量 700.00 kg
长度 0.30 m
跨度 29.00 m
形状 ? Box + pan
制造商 SPXS
平台类型 Starlink V2M
阶段状态 In Orbit
所有者/国家 SPXS/US

Most Searched